Weather History for Crestview, FL

Change the Weather History Date:

Tuesday, November 27, 2012

  Actual Average Record
Temperature  
Mean Temperature 60 °F -  
Max Temperature 64 °F - - ()
Min Temperature 54 °F - - ()
Degree Days  
Heating Degree Days 6    
Growing Degree Days 10 (Base 50)    
Moisture  
Dew Point 59 °F    
Average Humidity 97    
Maximum Humidity 100    
Minimum Humidity 90    
Precipitation  
Precipitation 1.04 in - - ()
Sea Level Pressure  
Sea Level Pressure 30.16 in    
Wind  
Wind Speed 4 mph (NNW)    
Max Wind Speed 16 mph    
Max Gust Speed -    
Visibility 8 miles    
Events Fog , Rain    
T = Trace of Precipitation, MM = Missing Value Source: NWS Daily Summary

Daily Weather History Graph

Daily Weather History Graph

Search for Another Location

Airport:

Trip Planner

Search our weather history database for the weather conditions in past years. The results will help you decide how hot, cold, wet, or windy it might be!

Date:

Astronomy

Nov. 27, 2012 Rise Set
Actual Time 6:22 AM CST 4:44 PM CST
Civil Twilight 5:56 AM CST 5:10 PM CST
Nautical Twilight 5:27 AM CST 5:40 PM CST
Astronomical Twilight 4:58 AM CST 6:09 PM CST
Moon 4:14 PM CST (11/27) 5:29 AM CST (11/27)
Length of Visible Light 11h 14m
Length of Day
10h 21m
Waxing Gibbous, 99% of the Moon is Illuminated
Nov 27
Waxing Gibbous
Nov 28
Full
Dec 6
Last Quarter
Dec 13
New
Dec 19
First Quarter

Hourly Weather History & Observations

Time (CST) Temp. Dew Point Humidity Pressure Visibility Wind Dir Wind Speed Gust Speed Precip Events Conditions
12:55 AM 60.3 °F 57.4 °F 90% 30.15 in 10.0 mi SSE 3.5 mph - N/A   Overcast
1:11 AM 59.0 °F 57.2 °F 94% 30.14 in 10.0 mi Calm Calm - N/A Rain Light Rain
1:40 AM 59.0 °F 57.2 °F 94% 30.14 in 10.0 mi SE 3.5 mph - N/A   Partly Cloudy
1:55 AM 59.4 °F 57.6 °F 94% 30.13 in 10.0 mi SE 3.5 mph - 0.00 in   Mostly Cloudy
1:59 AM 59.0 °F 57.2 °F 94% 30.13 in 10.0 mi SE 4.6 mph - N/A   Light Drizzle
2:09 AM 59.0 °F 57.2 °F 94% 30.13 in 10.0 mi SE 3.5 mph - N/A   Scattered Clouds
2:55 AM 58.3 °F 57.2 °F 96% 30.12 in 10.0 mi Calm Calm - 0.00 in   Scattered Clouds
3:10 AM 59.0 °F 57.2 °F 94% 30.12 in 10.0 mi Calm Calm - N/A Rain Light Rain
3:20 AM 59.0 °F 57.2 °F 94% 30.12 in 10.0 mi SSE 3.5 mph - N/A   Scattered Clouds
3:55 AM 58.1 °F 56.8 °F 96% 30.11 in 10.0 mi Calm Calm - 0.00 in   Mostly Cloudy
4:55 AM 57.6 °F 57.0 °F 98% 30.12 in 10.0 mi Calm Calm - N/A   Mostly Cloudy
5:22 AM 57.2 °F 57.2 °F 100% 30.12 in 10.0 mi Calm Calm - N/A Rain Light Rain
5:55 AM 58.3 °F 57.9 °F 99% 30.13 in 9.0 mi Calm Calm - 0.01 in Rain Light Rain
6:29 AM 60.8 °F 59.0 °F 94% 30.12 in 10.0 mi SSE 3.5 mph - N/A   Partly Cloudy
6:31 AM 60.8 °F 59.0 °F 94% 30.13 in 10.0 mi SSE 4.6 mph - N/A Rain Light Rain
6:55 AM 61.3 °F 61.0 °F 99% 30.13 in 10.0 mi SSE 3.5 mph - 0.02 in Rain Light Rain
7:21 AM 60.8 °F 60.8 °F 100% 30.14 in 10.0 mi Calm Calm - N/A   Overcast
7:34 AM 60.8 °F 60.8 °F 100% 30.14 in 10.0 mi SSE 3.5 mph - N/A   Overcast
7:35 AM 60.8 °F 60.8 °F 100% 30.14 in 10.0 mi SSE 3.5 mph - N/A   Light Drizzle
7:47 AM 62.6 °F 60.8 °F 94% 30.14 in 6.0 mi SSE 3.5 mph - N/A Rain Rain
7:48 AM 62.6 °F 60.8 °F 94% 30.14 in 6.0 mi SSE 3.5 mph - N/A Rain Rain
7:55 AM 61.9 °F 61.5 °F 99% 30.14 in 5.0 mi SSE 4.6 mph - 0.02 in Rain Light Rain
8:21 AM 60.8 °F 60.8 °F 100% 30.15 in 5.0 mi SSE 4.6 mph - N/A Rain Rain
8:55 AM 62.1 °F 61.7 °F 99% 30.15 in 4.0 mi SSE 8.1 mph - 0.07 in   Overcast
9:23 AM 62.6 °F 62.6 °F 100% 30.14 in 6.0 mi SSE 6.9 mph - N/A Rain Light Rain
9:55 AM 64.2 °F 63.9 °F 99% 30.13 in 10.0 mi South 6.9 mph - 0.03 in   Overcast
10:14 AM 64.4 °F 62.6 °F 94% 30.14 in 3.0 mi NW 15.0 mph - N/A Rain Heavy Rain
10:30 AM 60.8 °F 59.0 °F 94% 30.15 in 1.2 mi North 16.1 mph - N/A Rain Rain
10:44 AM 60.8 °F 59.0 °F 94% 30.18 in 1.2 mi NW 9.2 mph - N/A Rain Rain
10:55 AM 59.9 °F 59.0 °F 97% 30.19 in 1.5 mi NW 6.9 mph - 0.51 in Rain Rain
11:14 AM 59.0 °F 59.0 °F 100% 30.18 in 2.0 mi NW 10.4 mph - N/A Rain Light Rain
11:55 AM 59.9 °F 59.4 °F 98% 30.17 in 3.0 mi NNW 6.9 mph - 0.28 in Rain Light Rain
12:28 PM 60.8 °F 59.0 °F 94% 30.14 in 4.0 mi North 2.3 mph - N/A Rain Light Rain
12:55 PM 60.4 °F 59.5 °F 97% 30.14 in 6.0 mi NNE 3.5 mph - 0.06 in Rain Light Rain
1:55 PM 60.8 °F 60.4 °F 99% 30.12 in 7.0 mi ENE 3.5 mph - 0.03 in Rain Light Rain
2:57 PM 61.0 °F 59.9 °F 96% 30.10 in 10.0 mi East 1.2 mph - 0.01 in Rain Light Rain
3:15 PM 60.8 °F 60.8 °F 100% 30.09 in 10.0 mi ENE 1.2 mph - N/A   Overcast
3:55 PM 60.8 °F 60.4 °F 99% 30.14 in 10.0 mi NNW 4.6 mph - 0.00 in   Mostly Cloudy
4:17 PM 60.8 °F 60.8 °F 100% 30.14 in 10.0 mi NW 8.1 mph - N/A   Mostly Cloudy
4:49 PM 60.8 °F 59.0 °F 94% 30.15 in 10.0 mi NW 5.8 mph - N/A   Mostly Cloudy
4:55 PM 59.9 °F 59.5 °F 99% 30.19 in 10.0 mi NW 5.8 mph - N/A   Mostly Cloudy
5:47 PM 59.0 °F 59.0 °F 100% 30.17 in 10.0 mi WNW 4.6 mph - N/A   Overcast
5:55 PM 59.2 °F 59.0 °F 99% 30.19 in 10.0 mi WNW 4.6 mph - N/A   Overcast
6:12 PM 59.0 °F 59.0 °F 100% 30.18 in 10.0 mi West 1.2 mph - N/A   Mostly Cloudy
6:47 PM 59.0 °F 59.0 °F 100% 30.18 in 10.0 mi NW 4.6 mph - N/A   Mostly Cloudy
6:55 PM 59.2 °F 58.8 °F 99% 30.20 in 10.0 mi NW 4.6 mph - N/A   Mostly Cloudy
7:23 PM 59.0 °F 59.0 °F 100% 30.19 in 9.0 mi NW 6.9 mph - N/A   Mostly Cloudy
7:55 PM 58.6 °F 58.5 °F 99% 30.21 in 9.0 mi NNW 3.5 mph - N/A   Mostly Cloudy
8:08 PM 59.0 °F 59.0 °F 100% 30.20 in 10.0 mi NNW 4.6 mph - N/A   Overcast
8:32 PM 59.0 °F 59.0 °F 100% 30.20 in 9.0 mi NW 3.5 mph - N/A   Overcast
8:41 PM 59.0 °F 59.0 °F 100% 30.20 in 5.0 mi North 10.4 mph - N/A   Overcast
8:55 PM 57.9 °F 57.6 °F 99% 30.22 in 10.0 mi North 6.9 mph - N/A   Overcast
9:55 PM 56.5 °F 55.2 °F 96% 30.24 in 5.0 mi NNW 9.2 mph - N/A   Overcast
10:30 PM 55.4 °F 55.4 °F 100% 30.24 in 3.0 mi North 6.9 mph - N/A   Light Drizzle
10:48 PM 55.4 °F 55.4 °F 100% 30.24 in 1.0 mi North 8.1 mph - N/A   Light Drizzle
10:55 PM 55.2 °F 54.7 °F 98% 30.26 in 1.0 mi North 8.1 mph - 0.00 in   Light Drizzle
11:30 PM 55.4 °F 55.4 °F 100% 30.24 in 0.2 mi NNW 5.8 mph - N/A Fog Light Drizzle
11:55 PM 54.0 °F 53.8 °F 99% 30.25 in 0.2 mi NW 8.1 mph - N/A   Light Drizzle